Lapse_Rate
3.3 3.7 3.8 2.9 3.1 2.5 3.0 2.5 2.8 2.1 2.2 2.0 2.3 1.7 1.5 1.1 2.0 2.4 2.5 2.2 2.3 2.4
2.9 2.8 3.3 3.0 2.6 2.6 2.5 2.8 2.5 2.1 2.2 2.2 2.1 1.5 1.6 2.8 2.8 1.8 1.6 2.5 1.9 2.0
3.3 3.2 3.4 3.2 3.6 3.4 3.0 2.4 2.4 2.3 2.0 2.1 1.9 2.2 2.7 3.7 3.0 2.5 1.4 1.5 1.6 1.4
2.3 2.7 3.0 3.2 3.2 2.7 2.8 2.5 3.1 3.1 3.3 3.6 3.7 2.6 1.6 2.1 1.6 1.8 1.0 0.7 0.6 1.2
0.8 1.3 1.3 1.6 2.1 2.2 2.4 3.0 3.5 3.6 3.8 3.6 3.6 2.8 1.5 1.0 1.4 1.7 1.2 0.6 0.2 0.6
1.2 1.2 0.9 2.4 2.5 3.1 3.2 3.1 3.2 2.9 2.7 3.3 2.1 2.5 1.8 1.5 1.6 1.2 1.3 0.7 0.8 0.7
1.6 1.9 1.6 1.2 2.4 3.3 3.8 3.4 3.0 1.6 2.0 1.9 0.6 -0.0 0.0 1.1 1.2 0.7 0.6 0.4 0.8 1.2
1.3 2.0 1.6 1.1 2.2 3.1 3.9 4.2 3.6 1.6 1.5 2.0 1.2 0.9 0.7 0.3 -0.0 -0.1 0.1 0.7 0.8 0.6
2.7 2.6 2.0 2.0 2.7 3.2 2.5 2.7 2.0 0.7 0.8 0.5 -0.1 -1.8 -1.5 -0.5 -0.1 0.2 0.4 -1.1 -1.0 -0.8
2.5 2.8 3.1 2.8 1.7 1.3 1.4 0.9 0.9 0.3 -0.1 0.1 -0.2 -2.5 -2.3 -1.6 0.5 0.3 -1.2 -1.2 -1.3 -0.3
1.5 1.7 0.2 0.4 0.9 1.3 1.0 1.4 0.9 0.3 0.3 0.0 -1.2 -2.7 -2.4 -2.5 -2.0 -1.9 -1.2 -0.6 -0.2 -0.1
-0.3 -0.8 -0.7 0.1 0.3 0.0 0.0 -0.1 -0.1 -0.2 -0.2 -1.1 -2.1 -3.1 -3.0 -1.9 -1.7 -1.4 -1.0 -0.6 -0.3 0.0
-1.4 -0.9 1.2 0.8 0.1 0.3 0.2 -0.5 -1.0 -1.2 -0.7 -1.4 -2.1 -1.5 -1.2 -0.9 -1.2 -1.2 -0.9 -0.6 0.0 0.4
1.2 0.9 0.9 0.1 -0.3 -0.5 -1.7 -2.3 -2.5 -2.4 -2.0 -1.4 -0.9 -1.1 -0.0 0.3 0.2 -0.2 -0.3 0.0 -0.4 0.1
Wind_Speed
8 6 5 5 4 4 4 3 5 6 6 7 9 8 7 3 4 5 7 8 8 6
9 8 8 6 4 5 5 5 6 6 7 7 8 8 7 6 7 6 6 7 6 4
12 11 10 8 11 10 9 7 7 8 7 8 8 8 9 8 6 9 5 5 7 4
13 14 13 13 12 11 9 9 9 8 8 11 10 9 9 7 7 9 7 5 7 6
17 18 19 20 18 15 13 9 11 11 11 10 10 9 9 8 9 10 10 9 8 7
18 19 17 15 12 10 12 13 13 12 11 10 10 10 8 9 10 10 10 10 10 10
16 19 13 10 10 13 14 14 10 10 10 8 7 6 6 8 8 7 6 7 8 8
16 14 8 8 11 13 15 12 12 10 7 7 8 7 10 9 9 9 8 7 7 6
13 13 11 10 11 13 12 11 10 10 9 8 5 10 11 11 9 10 11 10 9 10
13 13 11 7 9 9 10 8 8 6 8 8 7 15 14 13 9 9 10 10 10 7
11 9 7 8 8 8 7 8 8 8 9 8 7 14 15 16 11 10 10 9 9 9
11 9 9 9 9 9 9 8 8 8 9 10 10 18 18 15 11 11 10 8 8 8
9 9 8 8 9 7 8 8 8 8 8 12 11 16 17 13 8 10 8 9 9 11
8 8 9 8 7 8 9 10 10 11 9 11 10 11 17 15 7 7 7 6 5 4
Wind_Direction
198 204 220 212 214 222 232 197 190 203 202 208 208 205 200 192 221 213 222 211 214 213
202 201 209 208 202 219 211 209 205 205 206 197 198 180 178 201 206 194 206 221 203 188
200 200 206 198 214 216 210 203 202 213 199 205 196 188 194 214 215 208 196 191 184 166
196 198 203 213 215 208 205 201 212 213 217 233 229 201 191 198 190 199 181 173 173 166
195 196 206 211 212 205 206 205 218 224 233 228 232 174 174 179 194 193 193 180 163 167
209 207 217 213 216 206 210 211 219 211 204 207 204 184 188 185 201 195 197 173 170 160
209 217 211 193 193 194 202 205 211 202 196 188 178 179 166 185 187 170 170 158 150 146
212 219 202 184 190 194 205 213 210 199 188 184 192 181 179 172 162 150 143 131 115 94
216 218 212 196 194 202 206 201 183 183 173 174 179 159 167 154 156 149 141 116 100 108
208 215 210 198 175 186 187 171 173 163 158 169 167 151 144 134 139 131 122 125 120 110
193 194 148 149 163 163 160 166 168 165 157 148 136 130 127 116 114 103 105 115 116 119
180 165 156 158 152 151 151 150 151 148 145 133 132 128 123 115 109 106 103 103 108 120
147 149 161 155 154 152 145 135 122 110 115 122 117 118 115 116 119 118 119 111 111 119
151 152 151 139 134 132 122 110 104 99 94 99 111 113 117 118 120 130 127 124 125 121